Weather in Rudná

Czech Republic     50°02′01″N   14°13′53″E
temp.,
°C
wind,
m/s
gust,
m/s
humid.,
%
clouds,
%
prec.,
mm/h
press.,
hPa
HPBL,
m
7 may, fri
fri723:00+6sw2496100 3.3 1006267
02:00+7ssw31093100 5.2 1004595
05:00+7w61291100 0.1 10041048
08:00+7w6108666 0.3 1007977
11:00+6wnw5983100 0.3 1010956
14:00+8wnw6964100 0.9 10111647
17:00+10nw71049100 0.8 10122228
20:00+5wnw48821 1.3 1017294
8 may, sat
sat823:00+2wsw36900 0.0 1020114
02:00+1wsw36895 0.0 1021103
05:000sw35895 0.0 102172
08:00+5wsw36725 0.0 1022279
11:00+10wsw3449100 0.0 10211673
14:00+13wsw354098 0.0 10192234
17:00+13sw3441100 0.0 10181911
20:00+9ssw115970 0.0 101812
9 may, sun
sun923:00+7sse225973 0.0 101820
02:00+4s338033 0.0 101848
05:00+4s227566 0.0 101714
08:00+9sse23635 0.0 1017190
11:00+17se465225 0.0 1015746
14:00+20se674920 0.0 10131123
17:00+19se685877 0.0 1012973
20:00+14se6137199 0.0 1011508
10 may, mon
mon1023:00+10ese48785 0.0 1011209
02:00+9ese378236 0.0 1011149
05:00+7se23885 0.0 101056
08:00+11sse247731 0.0 1011348
11:00+18ssw23615 0.0 1011676
14:00+22se33530 0.0 10101084
17:00+23ese445791 0.0 10101188
20:00+17se367811 0.0 1010117
11 may, tue
tue1123:00+14e379199 0.0 1009178
02:00+13ese3794100 0.0 1007169
05:00+12ese2295100 0.0 100817
08:00+15sw238798 0.0 1009271
11:00+17wsw3276100 0.0 1009786
14:00+19ne237261 0.0 1007661
17:00+20ne467690 0.2 1005373
20:00+18nne248571 0.2 100283